Time,TemperatureF,DewpointF,PressureIn,WindDirection,WindDirectionDegrees,WindSpeedMPH,WindSpeedGustMPH,Humidity,HourlyPrecipIn,Conditions,Clouds,dailyrainin,SoftwareType,DateUTC
2013-12-26 00:01:00,22.1,18.6,30.42,ESE,121,0.0,0.0,86,0.00,CLR,,0.00,WeatherDisplay:10.37,2013-12-26 05:01:00,
2013-12-26 00:02:00,22.1,18.6,30.42,ESE,121,0.0,0.0,86,0.00,CLR,,0.00,WeatherDisplay:10.37,2013-12-26 05:02:00,
2013-12-26 00:03:00,22.1,18.6,30.42,ESE,121,0.0,0.0,86,0.00,CLR,,0.00,WeatherDisplay:10.37,2013-12-26 05:03:00,
2013-12-26 00:08:00,22.0,18.5,30.42,ESE,121,0.0,0.0,86,0.00,CLR,,0.00,WeatherDisplay:10.37,2013-12-26 05:08:00,
2013-12-26 00:13:00,21.9,18.4,30.42,ESE,121,0.0,0.0,86,0.00,CLR,,0.00,WeatherDisplay:10.37,2013-12-26 05:13:00,
2013-12-26 00:18:00,21.8,18.3,30.41,ESE,121,0.0,0.0,86,0.00,CLR,,0.00,WeatherDisplay:10.37,2013-12-26 05:18:00,
2013-12-26 00:23:00,21.8,18.3,30.41,ESE,121,0.0,0.0,86,0.00,CLR,,0.00,WeatherDisplay:10.37,2013-12-26 05:23:00,
2013-12-26 00:28:00,21.7,18.2,30.41,ESE,121,0.0,0.0,86,0.00,CLR,,0.00,WeatherDisplay:10.37,2013-12-26 05:28:00,
2013-12-26 00:33:00,21.7,18.2,30.40,ESE,121,0.0,0.0,86,0.00,CLR,,0.00,WeatherDisplay:10.37,2013-12-26 05:33:00,
2013-12-26 00:38:00,21.6,18.3,30.40,ESE,121,0.0,0.0,87,0.00,CLR,,0.00,WeatherDisplay:10.37,2013-12-26 05:38:00,
2013-12-26 00:43:00,21.6,18.3,30.40,ESE,121,0.0,0.0,87,0.00,CLR,,0.00,WeatherDisplay:10.37,2013-12-26 05:43:00,
2013-12-26 00:48:00,21.6,18.3,30.40,ESE,121,0.0,0.0,87,0.00,CLR,,0.00,WeatherDisplay:10.37,2013-12-26 05:48:00,
2013-12-26 00:53:00,21.5,18.2,30.40,ESE,121,0.0,0.0,87,0.00,CLR,,0.00,WeatherDisplay:10.37,2013-12-26 05:53:00,
2013-12-26 00:58:00,21.4,18.1,30.40,ESE,121,0.0,0.0,87,0.00,CLR,,0.00,WeatherDisplay:10.37,2013-12-26 05:58:00,
2013-12-26 01:03:00,21.4,18.1,30.40,ESE,121,0.0,0.0,87,0.00,CLR,,0.00,WeatherDisplay:10.37,2013-12-26 06:03:00,
2013-12-26 01:15:00,21.4,18.1,30.39,ESE,121,0.0,0.0,87,0.00,CLR,,0.00,WeatherDisplay:10.37,2013-12-26 06:15:00,
2013-12-26 01:20:00,21.3,18.0,30.39,ESE,121,0.0,0.0,87,0.00,CLR,,0.00,WeatherDisplay:10.37,2013-12-26 06:20:00,
2013-12-26 01:25:00,21.3,18.0,30.39,ESE,121,0.0,0.0,87,0.00,CLR,,0.00,WeatherDisplay:10.37,2013-12-26 06:25:00,
2013-12-26 01:30:00,21.3,18.3,30.38,ESE,121,0.0,0.0,88,0.00,CLR,,0.00,WeatherDisplay:10.37,2013-12-26 06:30:00,
2013-12-26 01:35:00,21.2,18.2,30.38,ESE,121,0.0,0.0,88,0.00,CLR,,0.00,WeatherDisplay:10.37,2013-12-26 06:35:00,
2013-12-26 01:40:00,21.2,17.9,30.38,ESE,121,0.0,0.0,87,0.00,CLR,,0.00,WeatherDisplay:10.37,2013-12-26 06:40:00,
2013-12-26 01:45:00,21.1,18.1,30.38,ESE,121,0.0,0.0,88,0.00,CLR,,0.00,WeatherDisplay:10.37,2013-12-26 06:45:00,
2013-12-26 01:50:00,21.0,18.0,30.38,ESE,121,0.0,0.0,88,0.00,CLR,,0.00,WeatherDisplay:10.37,2013-12-26 06:50:00,
2013-12-26 01:55:00,21.0,18.0,30.37,ESE,121,0.0,0.0,88,0.00,CLR,,0.00,WeatherDisplay:10.37,2013-12-26 06:55:00,
2013-12-26 02:00:00,20.9,17.9,30.37,ESE,121,0.0,0.0,88,0.00,CLR,,0.00,WeatherDisplay:10.37,2013-12-26 07:00:00,
2013-12-26 02:05:00,20.8,17.8,30.37,ESE,121,0.0,0.0,88,0.00,CLR,,0.00,WeatherDisplay:10.37,2013-12-26 07:05:00,
2013-12-26 02:10:00,20.8,17.8,30.37,ESE,121,0.0,0.0,88,0.00,CLR,,0.00,WeatherDisplay:10.37,2013-12-26 07:10:00,
2013-12-26 02:15:00,20.7,17.7,30.37,ESE,121,0.0,0.0,88,0.00,CLR,,0.00,WeatherDisplay:10.37,2013-12-26 07:15:00,
2013-12-26 02:20:00,20.6,17.6,30.37,ESE,121,0.0,0.0,88,0.00,CLR,,0.00,WeatherDisplay:10.37,2013-12-26 07:20:00,
2013-12-26 02:25:00,20.6,17.6,30.37,ESE,121,0.0,0.0,88,0.00,CLR,,0.00,WeatherDisplay:10.37,2013-12-26 07:25:00,
2013-12-26 02:30:00,20.5,17.5,30.36,ESE,121,0.0,0.0,88,0.00,CLR,,0.00,WeatherDisplay:10.37,2013-12-26 07:30:00,
2013-12-26 02:35:00,20.5,17.5,30.37,ESE,121,0.0,0.0,88,0.00,CLR,,0.00,WeatherDisplay:10.37,2013-12-26 07:35:00,
2013-12-26 02:40:00,20.6,17.6,30.37,ESE,121,0.0,0.0,88,0.00,CLR,,0.00,WeatherDisplay:10.37,2013-12-26 07:40:00,
2013-12-26 02:45:00,20.7,18.0,30.37,ESE,121,0.0,0.0,89,0.00,CLR,,0.00,WeatherDisplay:10.37,2013-12-26 07:45:00,
2013-12-26 02:50:00,20.9,18.2,30.37,ESE,121,0.0,0.0,89,0.00,CLR,,0.00,WeatherDisplay:10.37,2013-12-26 07:50:00,
2013-12-26 02:55:00,21.0,18.3,30.37,ESE,121,0.0,0.0,89,0.00,CLR,,0.00,WeatherDisplay:10.37,2013-12-26 07:55:00,
2013-12-26 03:00:00,21.2,18.5,30.36,ESE,121,0.0,0.0,89,0.00,CLR,,0.00,WeatherDisplay:10.37,2013-12-26 08:00:00,
2013-12-26 03:05:00,21.2,18.5,30.36,ESE,121,0.0,0.0,89,0.00,CLR,,0.00,WeatherDisplay:10.37,2013-12-26 08:05:00,
2013-12-26 03:10:00,21.4,18.7,30.37,ESE,121,0.0,0.0,89,0.00,CLR,,0.00,WeatherDisplay:10.37,2013-12-26 08:10:00,
2013-12-26 03:15:00,21.4,18.7,30.36,ESE,121,0.0,0.0,89,0.00,CLR,,0.00,WeatherDisplay:10.37,2013-12-26 08:15:00,
2013-12-26 03:20:00,21.4,18.7,30.36,ESE,121,0.0,0.0,89,0.00,CLR,,0.00,WeatherDisplay:10.37,2013-12-26 08:20:00,
2013-12-26 03:25:00,21.6,18.9,30.35,ESE,121,0.0,0.0,89,0.00,CLR,,0.00,WeatherDisplay:10.37,2013-12-26 08:25:00,
2013-12-26 03:30:00,21.7,19.5,30.34,ESE,121,0.0,0.0,91,0.00,CLR,,0.00,WeatherDisplay:10.37,2013-12-26 08:30:00,
2013-12-26 03:35:00,21.7,19.5,30.35,ESE,121,0.0,0.0,91,0.00,CLR,,0.00,WeatherDisplay:10.37,2013-12-26 08:35:00,
2013-12-26 03:40:00,21.7,19.5,30.35,ESE,121,0.0,0.0,91,0.00,CLR,,0.00,WeatherDisplay:10.37,2013-12-26 08:40:00,
2013-12-26 03:45:00,21.8,19.6,30.35,ESE,121,0.0,0.0,91,0.00,CLR,,0.00,WeatherDisplay:10.37,2013-12-26 08:45:00,
2013-12-26 03:50:00,21.9,19.7,30.35,ESE,121,0.0,0.0,91,0.00,CLR,,0.00,WeatherDisplay:10.37,2013-12-26 08:50:00,
2013-12-26 03:55:00,22.1,19.9,30.35,ESE,121,0.0,0.0,91,0.00,CLR,,0.00,WeatherDisplay:10.37,2013-12-26 08:55:00,
2013-12-26 04:00:00,22.1,19.9,30.35,ESE,121,0.0,0.0,91,0.00,CLR,,0.00,WeatherDisplay:10.37,2013-12-26 09:00:00,
2013-12-26 04:05:00,22.2,20.0,30.35,ESE,121,0.0,0.0,91,0.00,CLR,,0.00,WeatherDisplay:10.37,2013-12-26 09:05:00,
2013-12-26 04:10:00,22.3,20.1,30.35,ESE,121,1.2,0.0,91,0.00,CLR,,0.00,WeatherDisplay:10.37,2013-12-26 09:10:00,
2013-12-26 04:15:00,22.3,20.1,30.34,ESE,121,0.0,0.0,91,0.00,CLR,,0.00,WeatherDisplay:10.37,2013-12-26 09:15:00,
2013-12-26 04:20:00,22.3,20.1,30.35,ESE,121,0.0,0.0,91,0.00,CLR,,0.00,WeatherDisplay:10.37,2013-12-26 09:20:00,
2013-12-26 04:25:00,22.4,20.2,30.35,ESE,121,0.0,0.0,91,0.00,CLR,,0.00,WeatherDisplay:10.37,2013-12-26 09:25:00,
2013-12-26 04:30:00,22.5,20.3,30.34,ESE,121,1.0,1.0,91,0.00,CLR,,0.00,WeatherDisplay:10.37,2013-12-26 09:30:00,
2013-12-26 04:35:00,22.6,20.4,30.34,ESE,121,0.0,0.0,91,0.00,CLR,,0.00,WeatherDisplay:10.37,2013-12-26 09:35:00,
2013-12-26 04:40:00,22.7,20.5,30.34,ESE,121,0.0,0.1,91,0.00,CLR,,0.00,WeatherDisplay:10.37,2013-12-26 09:40:00,
2013-12-26 04:45:00,22.9,20.9,30.34,ESE,121,0.0,0.0,92,0.00,CLR,,0.00,WeatherDisplay:10.37,2013-12-26 09:45:00,
2013-12-26 04:50:00,23.1,21.1,30.33,ESE,121,0.0,0.0,92,0.00,CLR,,0.00,WeatherDisplay:10.37,2013-12-26 09:50:00,
2013-12-26 04:55:00,23.4,21.4,30.34,ESE,121,0.0,0.0,92,0.00,CLR,,0.00,WeatherDisplay:10.37,2013-12-26 09:55:00,
2013-12-26 05:00:00,23.5,21.5,30.34,ESE,121,0.0,0.0,92,0.00,CLR,,0.00,WeatherDisplay:10.37,2013-12-26 10:00:00,
2013-12-26 05:05:00,23.7,21.7,30.34,ESE,121,0.0,0.0,92,0.00,CLR,,0.00,WeatherDisplay:10.37,2013-12-26 10:05:00,
2013-12-26 05:10:00,23.9,21.9,30.34,ESE,121,1.2,1.2,92,0.00,CLR,,0.00,WeatherDisplay:10.37,2013-12-26 10:10:00,
2013-12-26 05:15:00,24.1,22.1,30.33,ESE,121,0.0,0.0,92,0.00,CLR,,0.00,WeatherDisplay:10.37,2013-12-26 10:15:00,
2013-12-26 05:20:00,24.4,22.4,30.32,ESE,121,0.0,0.0,92,0.00,CLR,,0.00,WeatherDisplay:10.37,2013-12-26 10:20:00,
2013-12-26 05:25:00,24.5,22.5,30.33,ESE,121,0.0,0.0,92,0.00,CLR,,0.00,WeatherDisplay:10.37,2013-12-26 10:25:00,
2013-12-26 05:30:00,24.7,22.7,30.33,ESE,121,1.2,0.0,92,0.00,CLR,,0.00,WeatherDisplay:10.37,2013-12-26 10:30:00,
2013-12-26 05:35:00,24.9,22.9,30.33,ESE,121,0.0,0.0,92,0.00,CLR,,0.00,WeatherDisplay:10.37,2013-12-26 10:35:00,
2013-12-26 05:40:00,25.0,23.0,30.33,ESE,121,0.0,0.0,92,0.00,CLR,,0.00,WeatherDisplay:10.37,2013-12-26 10:40:00,
2013-12-26 05:45:00,25.1,23.1,30.33,ESE,121,1.2,1.2,92,0.00,CLR,,0.00,WeatherDisplay:10.37,2013-12-26 10:45:00,
2013-12-26 05:50:00,25.2,23.2,30.33,ESE,121,0.0,0.0,92,0.00,CLR,,0.00,WeatherDisplay:10.37,2013-12-26 10:50:00,
2013-12-26 05:55:00,25.3,23.3,30.33,ESE,121,0.0,0.0,92,0.00,CLR,,0.00,WeatherDisplay:10.37,2013-12-26 10:55:00,
2013-12-26 06:00:00,25.4,23.4,30.33,ESE,121,0.0,0.0,92,0.00,CLR,,0.00,WeatherDisplay:10.37,2013-12-26 11:00:00,
2013-12-26 06:05:00,25.5,23.5,30.32,ESE,121,0.0,0.0,92,0.00,CLR,,0.00,WeatherDisplay:10.37,2013-12-26 11:05:00,
2013-12-26 06:10:00,25.6,23.6,30.32,ESE,121,0.0,0.0,92,0.00,CLR,,0.00,WeatherDisplay:10.37,2013-12-26 11:10:00,
2013-12-26 06:15:00,25.7,23.7,30.33,ESE,121,0.0,0.0,92,0.00,CLR,,0.00,WeatherDisplay:10.37,2013-12-26 11:15:00,
2013-12-26 06:20:00,25.8,24.1,30.33,ESE,121,0.0,0.0,93,0.00,CLR,,0.00,WeatherDisplay:10.37,2013-12-26 11:20:00,
2013-12-26 06:25:00,25.9,24.2,30.33,ESE,121,0.0,0.0,93,0.00,CLR,,0.00,WeatherDisplay:10.37,2013-12-26 11:25:00,
2013-12-26 06:30:00,26.1,24.4,30.33,ESE,121,0.0,0.0,93,0.00,CLR,,0.00,WeatherDisplay:10.37,2013-12-26 11:30:00,
2013-12-26 06:35:00,26.2,24.5,30.33,ESE,121,0.0,0.0,93,0.00,CLR,,0.00,WeatherDisplay:10.37,2013-12-26 11:35:00,
2013-12-26 06:40:00,26.3,24.6,30.33,ESE,121,0.0,0.0,93,0.00,CLR,,0.00,WeatherDisplay:10.37,2013-12-26 11:40:00,
2013-12-26 06:45:00,26.3,24.6,30.34,ESE,121,0.0,0.0,93,0.00,CLR,,0.00,WeatherDisplay:10.37,2013-12-26 11:45:00,
2013-12-26 06:50:00,26.4,24.7,30.33,ESE,121,0.0,0.0,93,0.00,CLR,,0.00,WeatherDisplay:10.37,2013-12-26 11:50:00,
2013-12-26 06:55:00,26.6,24.8,30.33,ESE,121,0.0,0.0,93,0.00,CLR,,0.00,WeatherDisplay:10.37,2013-12-26 11:55:00,
2013-12-26 07:00:00,26.6,24.8,30.33,ESE,121,0.0,0.0,93,0.00,CLR,,0.00,WeatherDisplay:10.37,2013-12-26 12:00:00,
2013-12-26 07:05:00,26.8,25.0,30.34,ESE,121,0.0,0.0,93,0.00,CLR,,0.00,WeatherDisplay:10.37,2013-12-26 12:05:00,
2013-12-26 07:10:00,26.9,25.1,30.35,ESE,121,0.0,0.1,93,0.00,CLR,,0.00,WeatherDisplay:10.37,2013-12-26 12:10:00,
2013-12-26 07:15:00,27.1,25.3,30.35,ESE,121,0.0,0.0,93,0.00,CLR,,0.00,WeatherDisplay:10.37,2013-12-26 12:15:00,
2013-12-26 07:20:00,27.2,25.4,30.35,ESE,121,0.0,0.0,93,0.00,CLR,,0.00,WeatherDisplay:10.37,2013-12-26 12:20:00,
2013-12-26 07:25:00,27.3,25.5,30.36,ESE,121,1.2,1.2,93,0.00,CLR,,0.00,WeatherDisplay:10.37,2013-12-26 12:25:00,
2013-12-26 07:30:00,27.5,25.7,30.36,ESE,121,0.0,0.0,93,0.00,CLR,,0.00,WeatherDisplay:10.37,2013-12-26 12:30:00,
2013-12-26 07:35:00,27.6,25.8,30.36,ESE,121,2.3,2.3,93,0.00,CLR,,0.00,WeatherDisplay:10.37,2013-12-26 12:35:00,
2013-12-26 07:40:00,27.7,25.9,30.36,SE,130,2.3,2.3,93,0.00,CLR,,0.00,WeatherDisplay:10.37,2013-12-26 12:40:00,
2013-12-26 07:45:00,27.7,25.9,30.36,SE,130,2.3,2.3,93,0.00,CLR,,0.00,WeatherDisplay:10.37,2013-12-26 12:45:00,
2013-12-26 07:50:00,27.9,26.1,30.37,SE,137,2.0,2.0,93,0.00,CLR,,0.00,WeatherDisplay:10.37,2013-12-26 12:50:00,
2013-12-26 07:55:00,28.0,26.2,30.38,SE,138,2.3,2.3,93,0.00,CLR,,0.00,WeatherDisplay:10.37,2013-12-26 12:55:00,
2013-12-26 08:00:00,28.1,26.3,30.37,SE,138,0.0,0.0,93,0.00,CLR,,0.00,WeatherDisplay:10.37,2013-12-26 13:00:00,
2013-12-26 08:03:00,28.1,26.3,30.37,SE,138,1.2,1.2,93,0.00,CLR,,0.00,WeatherDisplay:10.37,2013-12-26 13:03:00,
2013-12-26 08:08:00,28.2,26.4,30.37,SSE,155,3.5,3.5,93,0.00,CLR,,0.00,WeatherDisplay:10.37,2013-12-26 13:08:00,
2013-12-26 08:13:00,28.3,26.3,30.36,SSE,155,3.0,3.0,92,0.00,CLR,,0.00,WeatherDisplay:10.37,2013-12-26 13:13:00,
2013-12-26 08:18:00,28.4,26.4,30.37,SSE,155,3.5,3.5,92,0.00,CLR,,0.00,WeatherDisplay:10.37,2013-12-26 13:18:00,
2013-12-26 08:23:00,28.4,26.4,30.37,SSE,155,1.2,1.2,92,0.00,CLR,,0.00,WeatherDisplay:10.37,2013-12-26 13:23:00,
2013-12-26 08:28:00,28.5,26.5,30.36,SSE,156,2.3,2.3,92,0.00,CLR,,0.00,WeatherDisplay:10.37,2013-12-26 13:28:00,
2013-12-26 08:33:00,28.6,26.6,30.35,SSE,156,1.2,1.2,92,0.00,CLR,,0.00,WeatherDisplay:10.37,2013-12-26 13:33:00,
2013-12-26 08:38:00,28.8,26.8,30.36,SSE,156,0.0,0.0,92,0.00,CLR,,0.00,WeatherDisplay:10.37,2013-12-26 13:38:00,
2013-12-26 08:43:00,28.9,26.9,30.36,SSE,156,2.3,0.0,92,0.00,CLR,,0.00,WeatherDisplay:10.37,2013-12-26 13:43:00,
2013-12-26 08:48:00,29.0,27.0,30.36,SSE,156,0.0,0.0,92,0.00,CLR,,0.00,WeatherDisplay:10.37,2013-12-26 13:48:00,
2013-12-26 08:53:00,29.2,27.2,30.36,SSE,156,2.3,0.0,92,0.00,CLR,,0.00,WeatherDisplay:10.37,2013-12-26 13:53:00,
2013-12-26 08:58:00,29.4,27.4,30.36,SSE,156,2.3,2.3,92,0.00,CLR,,0.00,WeatherDisplay:10.37,2013-12-26 13:58:00,
2013-12-26 09:03:00,29.7,27.7,30.36,SSE,156,3.5,3.5,92,0.00,CLR,,0.00,WeatherDisplay:10.37,2013-12-26 14:03:00,
2013-12-26 09:08:00,29.9,27.6,30.36,SSE,156,0.0,0.0,91,0.00,CLR,,0.00,WeatherDisplay:10.37,2013-12-26 14:08:00,
2013-12-26 09:13:00,30.1,27.8,30.36,SSE,156,1.2,1.2,91,0.00,CLR,,0.00,WeatherDisplay:10.37,2013-12-26 14:13:00,
2013-12-26 09:18:00,30.3,28.0,30.36,SSE,156,0.0,0.0,91,0.00,CLR,,0.00,WeatherDisplay:10.37,2013-12-26 14:18:00,
2013-12-26 09:23:00,30.6,28.3,30.36,SSE,156,3.5,3.5,91,0.00,CLR,,0.00,WeatherDisplay:10.37,2013-12-26 14:23:00,
2013-12-26 09:28:00,30.9,28.6,30.36,SSE,156,3.5,3.5,91,0.00,CLR,,0.00,WeatherDisplay:10.37,2013-12-26 14:28:00,
2013-12-26 09:33:00,31.1,28.2,30.37,SSE,156,2.0,2.0,89,0.00,CLR,,0.00,WeatherDisplay:10.37,2013-12-26 14:33:00,
2013-12-26 09:38:00,31.6,28.7,30.36,SW,226,3.5,3.5,89,0.00,CLR,,0.00,WeatherDisplay:10.37,2013-12-26 14:38:00,
2013-12-26 09:43:00,31.9,29.0,30.36,WNW,282,4.6,4.6,89,0.00,CLR,,0.00,WeatherDisplay:10.37,2013-12-26 14:43:00,
2013-12-26 09:48:00,32.1,28.9,30.35,West,281,3.5,3.5,88,0.00,CLR,,0.00,WeatherDisplay:10.37,2013-12-26 14:48:00,
2013-12-26 09:53:00,32.4,29.0,30.36,NW,311,3.5,3.5,87,0.00,CLR,,0.00,WeatherDisplay:10.37,2013-12-26 14:53:00,
2013-12-26 09:58:00,32.9,29.2,30.37,WNW,298,3.5,3.5,86,0.00,CLR,,0.00,WeatherDisplay:10.37,2013-12-26 14:58:00,
2013-12-26 10:03:00,33.4,29.4,30.36,WNW,287,0.0,0.0,85,0.00,CLR,,0.00,WeatherDisplay:10.37,2013-12-26 15:03:00,
2013-12-26 10:08:00,33.9,29.0,30.36,SW,232,2.3,2.3,82,0.00,CLR,,0.00,WeatherDisplay:10.37,2013-12-26 15:08:00,
2013-12-26 10:13:00,34.3,28.5,30.36,WSW,242,4.6,4.6,79,0.00,CLR,,0.00,WeatherDisplay:10.37,2013-12-26 15:13:00,
2013-12-26 10:18:00,34.5,28.0,30.36,WSW,242,0.0,0.4,77,0.00,CLR,,0.00,WeatherDisplay:10.37,2013-12-26 15:18:00,
2013-12-26 10:23:00,34.9,27.8,30.37,West,263,5.8,5.8,75,0.00,CLR,,0.00,WeatherDisplay:10.37,2013-12-26 15:23:00,
2013-12-26 10:28:00,35.1,26.6,30.36,West,265,4.6,4.6,71,0.00,CLR,,0.00,WeatherDisplay:10.37,2013-12-26 15:28:00,
2013-12-26 10:33:00,35.3,26.1,30.36,SW,216,2.3,2.3,69,0.00,CLR,,0.00,WeatherDisplay:10.37,2013-12-26 15:33:00,
2013-12-26 10:38:00,35.5,26.3,30.36,SW,215,3.5,3.5,69,0.00,CLR,,0.00,WeatherDisplay:10.37,2013-12-26 15:38:00,
2013-12-26 10:43:00,35.7,26.2,30.36,West,267,5.8,5.8,68,0.00,CLR,,0.00,WeatherDisplay:10.37,2013-12-26 15:43:00,
2013-12-26 10:48:00,35.8,26.3,30.36,West,267,0.0,0.0,68,0.00,CLR,,0.00,WeatherDisplay:10.37,2013-12-26 15:48:00,
2013-12-26 10:53:00,35.9,26.4,30.35,West,267,3.5,3.5,68,0.00,CLR,,0.00,WeatherDisplay:10.37,2013-12-26 15:53:00,
2013-12-26 10:58:00,36.1,26.2,30.35,West,267,3.5,3.5,67,0.00,CLR,,0.00,WeatherDisplay:10.37,2013-12-26 15:58:00,
2013-12-26 11:03:00,36.3,26.4,30.35,West,267,2.3,2.3,67,0.00,CLR,,0.00,WeatherDisplay:10.37,2013-12-26 16:03:00,
2013-12-26 11:08:00,36.4,26.5,30.34,West,267,4.6,4.6,67,0.00,CLR,,0.00,WeatherDisplay:10.37,2013-12-26 16:08:00,
2013-12-26 11:13:00,36.5,26.2,30.34,West,267,3.5,3.5,66,0.00,CLR,,0.00,WeatherDisplay:10.37,2013-12-26 16:13:00,
2013-12-26 11:18:00,36.6,25.9,30.34,West,267,3.5,3.5,65,0.00,CLR,,0.00,WeatherDisplay:10.37,2013-12-26 16:18:00,
2013-12-26 11:23:00,36.9,26.6,30.33,SW,236,3.5,3.5,66,0.00,CLR,,0.00,WeatherDisplay:10.37,2013-12-26 16:23:00,
2013-12-26 11:28:00,37.3,27.0,30.33,SW,236,3.5,3.5,66,0.00,CLR,,0.00,WeatherDisplay:10.37,2013-12-26 16:28:00,
2013-12-26 11:33:00,37.5,26.8,30.33,SW,236,3.5,3.5,65,0.00,CLR,,0.00,WeatherDisplay:10.37,2013-12-26 16:33:00,
2013-12-26 11:38:00,38.0,27.3,30.33,SW,227,4.6,4.6,65,0.00,CLR,,0.00,WeatherDisplay:10.37,2013-12-26 16:38:00,
2013-12-26 11:43:00,38.4,27.3,30.32,SSW,209,4.6,4.6,64,0.00,CLR,,0.00,WeatherDisplay:10.37,2013-12-26 16:43:00,
2013-12-26 11:48:00,38.8,27.3,30.32,SSW,209,3.5,3.5,63,0.00,CLR,,0.00,WeatherDisplay:10.37,2013-12-26 16:48:00,
2013-12-26 11:53:00,39.1,27.2,30.31,WSW,252,4.6,4.6,62,0.00,CLR,,0.00,WeatherDisplay:10.37,2013-12-26 16:53:00,
2013-12-26 11:58:00,39.5,26.8,30.31,South,191,4.0,4.6,60,0.00,CLR,,0.00,WeatherDisplay:10.37,2013-12-26 16:58:00,
2013-12-26 12:03:00,39.9,27.1,30.30,SSW,207,3.5,4.5,60,0.00,CLR,,0.00,WeatherDisplay:10.37,2013-12-26 17:03:00,
2013-12-26 12:08:00,40.1,26.9,30.30,SSW,209,4.6,4.6,59,0.00,CLR,,0.00,WeatherDisplay:10.37,2013-12-26 17:08:00,
2013-12-26 12:13:00,40.3,27.1,30.30,SSW,206,4.6,4.6,59,0.00,CLR,,0.00,WeatherDisplay:10.37,2013-12-26 17:13:00,
2013-12-26 12:18:00,40.4,26.8,30.30,SW,217,4.6,4.6,58,0.00,CLR,,0.00,WeatherDisplay:10.37,2013-12-26 17:18:00,
2013-12-26 12:23:00,40.6,27.0,30.30,SW,233,4.6,4.6,58,0.00,CLR,,0.00,WeatherDisplay:10.37,2013-12-26 17:23:00,
2013-12-26 12:28:00,40.9,27.2,30.29,SW,223,5.8,5.8,58,0.00,CLR,,0.00,WeatherDisplay:10.37,2013-12-26 17:28:00,
2013-12-26 12:33:00,41.3,27.6,30.29,WSW,245,3.5,3.5,58,0.00,CLR,,0.00,WeatherDisplay:10.37,2013-12-26 17:33:00,
2013-12-26 12:38:00,42.1,27.5,30.29,WSW,250,3.5,3.5,56,0.00,CLR,,0.00,WeatherDisplay:10.37,2013-12-26 17:38:00,
2013-12-26 12:43:00,42.5,27.5,30.29,WSW,249,3.5,3.5,55,0.00,CLR,,0.00,WeatherDisplay:10.37,2013-12-26 17:43:00,
2013-12-26 12:48:00,43.1,28.5,30.28,WSW,250,2.0,2.0,56,0.00,CLR,,0.00,WeatherDisplay:10.37,2013-12-26 17:48:00,
2013-12-26 12:53:00,43.9,28.3,30.28,WSW,243,3.0,3.0,54,0.00,CLR,,0.00,WeatherDisplay:10.37,2013-12-26 17:53:00,
2013-12-26 12:58:00,44.7,28.1,30.28,NW,309,5.8,5.8,52,0.00,CLR,,0.00,WeatherDisplay:10.37,2013-12-26 17:58:00,
2013-12-26 13:03:00,45.2,27.6,30.28,West,270,6.9,6.9,50,0.00,CLR,,0.00,WeatherDisplay:10.37,2013-12-26 18:03:00,
2013-12-26 13:08:00,45.7,27.6,30.27,West,279,5.8,5.8,49,0.00,CLR,,0.00,WeatherDisplay:10.37,2013-12-26 18:08:00,
2013-12-26 13:13:00,46.2,27.6,30.27,West,279,3.0,3.0,48,0.00,CLR,,0.00,WeatherDisplay:10.37,2013-12-26 18:13:00,
2013-12-26 13:18:00,47.0,28.3,30.27,SSW,213,5.8,5.8,48,0.00,CLR,,0.00,WeatherDisplay:10.37,2013-12-26 18:18:00,
2013-12-26 13:23:00,47.6,27.8,30.27,SW,234,2.3,2.3,46,0.00,CLR,,0.00,WeatherDisplay:10.37,2013-12-26 18:23:00,
2013-12-26 13:28:00,48.0,27.6,30.26,West,272,2.3,2.3,45,0.00,CLR,,0.00,WeatherDisplay:10.37,2013-12-26 18:28:00,
2013-12-26 13:33:00,48.5,28.1,30.26,SW,222,3.5,3.5,45,0.00,CLR,,0.00,WeatherDisplay:10.37,2013-12-26 18:33:00,
2013-12-26 13:38:00,49.0,28.0,30.26,SW,231,3.5,3.5,44,0.00,CLR,,0.00,WeatherDisplay:10.37,2013-12-26 18:38:00,
2013-12-26 13:43:00,49.5,27.9,30.26,West,268,3.5,3.5,43,0.00,CLR,,0.00,WeatherDisplay:10.37,2013-12-26 18:43:00,
2013-12-26 13:48:00,49.7,27.5,30.26,SW,232,3.5,3.5,42,0.00,CLR,,0.00,WeatherDisplay:10.37,2013-12-26 18:48:00,
2013-12-26 13:53:00,50.2,28.5,30.26,SW,232,2.3,2.3,43,0.00,CLR,,0.00,WeatherDisplay:10.37,2013-12-26 18:53:00,
2013-12-26 13:58:00,50.6,28.3,30.26,WNW,287,3.5,3.5,42,0.00,CLR,,0.00,WeatherDisplay:10.37,2013-12-26 18:58:00,
2013-12-26 14:03:00,51.1,28.8,30.25,NW,310,2.3,2.3,42,0.00,CLR,,0.00,WeatherDisplay:10.37,2013-12-26 19:03:00,
2013-12-26 14:08:00,51.6,28.0,30.25,NW,311,2.3,2.3,40,0.00,CLR,,0.00,WeatherDisplay:10.37,2013-12-26 19:08:00,
2013-12-26 14:13:00,51.9,28.3,30.25,NW,311,2.3,2.3,40,0.00,CLR,,0.00,WeatherDisplay:10.37,2013-12-26 19:13:00,
2013-12-26 14:18:00,52.3,28.1,30.25,WNW,294,3.5,3.5,39,0.00,CLR,,0.00,WeatherDisplay:10.37,2013-12-26 19:18:00,
2013-12-26 14:23:00,52.6,27.7,30.25,West,271,2.3,2.3,38,0.00,CLR,,0.00,WeatherDisplay:10.37,2013-12-26 19:23:00,
2013-12-26 14:28:00,52.8,27.9,30.25,NW,304,3.5,3.5,38,0.00,CLR,,0.00,WeatherDisplay:10.37,2013-12-26 19:28:00,
2013-12-26 14:33:00,53.0,28.7,30.25,WSW,250,3.5,3.5,39,0.00,CLR,,0.00,WeatherDisplay:10.37,2013-12-26 19:33:00,
2013-12-26 14:38:00,53.2,27.6,30.25,WNW,283,3.5,3.5,37,0.00,CLR,,0.00,WeatherDisplay:10.37,2013-12-26 19:38:00,
2013-12-26 14:43:00,53.4,27.8,30.25,WNW,294,6.9,6.9,37,0.00,CLR,,0.00,WeatherDisplay:10.37,2013-12-26 19:43:00,
2013-12-26 14:48:00,53.5,27.2,30.25,WNW,292,1.2,0.0,36,0.00,CLR,,0.00,WeatherDisplay:10.37,2013-12-26 19:48:00,
2013-12-26 14:53:00,53.5,27.8,30.25,WNW,292,2.3,2.3,37,0.00,CLR,,0.00,WeatherDisplay:10.37,2013-12-26 19:53:00,
2013-12-26 14:58:00,53.6,27.9,30.25,West,269,3.5,3.5,37,0.00,CLR,,0.00,WeatherDisplay:10.37,2013-12-26 19:58:00,
2013-12-26 15:03:00,53.6,27.3,30.25,WNW,284,3.5,3.5,36,0.00,CLR,,0.00,WeatherDisplay:10.37,2013-12-26 20:03:00,
2013-12-26 15:08:00,53.6,27.9,30.25,WNW,284,1.2,0.0,37,0.00,CLR,,0.00,WeatherDisplay:10.37,2013-12-26 20:08:00,
2013-12-26 15:13:00,53.6,27.9,30.25,WNW,284,1.2,1.2,37,0.00,CLR,,0.00,WeatherDisplay:10.37,2013-12-26 20:13:00,
2013-12-26 15:18:00,53.8,28.1,30.25,WNW,284,2.3,2.3,37,0.00,CLR,,0.00,WeatherDisplay:10.37,2013-12-26 20:18:00,
2013-12-26 15:23:00,53.9,28.2,30.25,WNW,284,3.5,3.5,37,0.00,CLR,,0.00,WeatherDisplay:10.37,2013-12-26 20:23:00,
2013-12-26 15:28:00,54.0,28.9,30.25,WNW,282,3.5,3.5,38,0.00,CLR,,0.00,WeatherDisplay:10.37,2013-12-26 20:28:00,
2013-12-26 15:33:00,54.1,27.7,30.25,West,271,1.2,1.2,36,0.00,CLR,,0.00,WeatherDisplay:10.37,2013-12-26 20:33:00,
2013-12-26 15:38:00,54.0,28.3,30.25,NW,314,2.3,2.3,37,0.00,CLR,,0.00,WeatherDisplay:10.37,2013-12-26 20:38:00,
2013-12-26 15:43:00,54.0,28.3,30.26,NW,315,1.2,1.2,37,0.00,CLR,,0.00,WeatherDisplay:10.37,2013-12-26 20:43:00,
2013-12-26 15:48:00,53.9,28.8,30.26,NW,314,1.2,0.0,38,0.00,CLR,,0.00,WeatherDisplay:10.37,2013-12-26 20:48:00,
2013-12-26 15:53:00,53.7,28.0,30.26,NW,314,3.5,0.0,37,0.00,CLR,,0.00,WeatherDisplay:10.37,2013-12-26 20:53:00,
2013-12-26 15:58:00,53.6,28.6,30.26,NW,315,1.2,1.7,38,0.00,CLR,,0.00,WeatherDisplay:10.37,2013-12-26 20:58:00,
2013-12-26 16:03:00,53.4,28.4,30.26,NW,315,3.5,3.5,38,0.00,CLR,,0.00,WeatherDisplay:10.37,2013-12-26 21:03:00,
2013-12-26 16:08:00,53.3,27.7,30.26,NW,314,2.3,0.0,37,0.00,CLR,,0.00,WeatherDisplay:10.37,2013-12-26 21:08:00,
2013-12-26 16:13:00,53.1,28.1,30.26,NW,314,0.0,0.0,38,0.00,CLR,,0.00,WeatherDisplay:10.37,2013-12-26 21:13:00,
2013-12-26 16:18:00,52.9,28.6,30.26,NW,317,0.0,0.0,39,0.00,CLR,,0.00,WeatherDisplay:10.37,2013-12-26 21:18:00,
2013-12-26 16:23:00,52.6,28.9,30.26,West,277,1.2,1.2,40,0.00,CLR,,0.00,WeatherDisplay:10.37,2013-12-26 21:23:00,
2013-12-26 16:28:00,52.3,28.7,30.26,West,277,0.0,0.0,40,0.00,CLR,,0.00,WeatherDisplay:10.37,2013-12-26 21:28:00,
2013-12-26 16:33:00,51.9,30.1,30.26,West,277,2.0,2.0,43,0.00,CLR,,0.00,WeatherDisplay:10.37,2013-12-26 21:33:00,
2013-12-26 16:38:00,51.5,31.4,30.27,West,277,0.0,0.0,46,0.00,CLR,,0.00,WeatherDisplay:10.37,2013-12-26 21:38:00,
2013-12-26 16:43:00,50.8,31.3,30.27,West,277,0.0,0.0,47,0.00,CLR,,0.00,WeatherDisplay:10.37,2013-12-26 21:43:00,
2013-12-26 16:48:00,49.9,31.5,30.27,West,277,0.0,0.0,49,0.00,CLR,,0.00,WeatherDisplay:10.37,2013-12-26 21:48:00,
2013-12-26 16:53:00,49.1,31.7,30.27,West,277,0.0,0.0,51,0.00,CLR,,0.00,WeatherDisplay:10.37,2013-12-26 21:53:00,
2013-12-26 16:58:00,48.3,31.0,30.27,West,277,0.0,0.0,51,0.00,CLR,,0.00,WeatherDisplay:10.37,2013-12-26 21:58:00,
2013-12-26 17:03:00,47.4,31.1,30.27,West,277,0.0,0.0,53,0.00,CLR,,0.00,WeatherDisplay:10.37,2013-12-26 22:03:00,
2013-12-26 17:08:00,46.4,31.1,30.27,West,277,0.0,0.0,55,0.00,CLR,,0.00,WeatherDisplay:10.37,2013-12-26 22:08:00,
2013-12-26 17:13:00,45.5,30.7,30.28,West,277,0.0,0.0,56,0.00,CLR,,0.00,WeatherDisplay:10.37,2013-12-26 22:13:00,
2013-12-26 17:18:00,44.7,30.4,30.28,West,277,0.0,0.0,57,0.00,CLR,,0.00,WeatherDisplay:10.37,2013-12-26 22:18:00,
2013-12-26 17:23:00,43.8,30.0,30.28,West,277,0.0,0.0,58,0.00,CLR,,0.00,WeatherDisplay:10.37,2013-12-26 22:23:00,
2013-12-26 17:28:00,43.0,29.6,30.28,West,277,0.0,0.0,59,0.00,CLR,,0.00,WeatherDisplay:10.37,2013-12-26 22:28:00,
2013-12-26 17:33:00,42.3,29.4,30.29,West,277,0.0,0.0,60,0.00,CLR,,0.00,WeatherDisplay:10.37,2013-12-26 22:33:00,
2013-12-26 17:37:00,41.8,29.7,30.29,West,277,0.0,0.0,62,0.00,CLR,,0.00,WeatherDisplay:10.37,2013-12-26 22:37:00,
2013-12-26 17:42:00,41.2,29.9,30.29,West,277,0.0,0.0,64,0.00,CLR,,0.00,WeatherDisplay:10.37,2013-12-26 22:42:00,
2013-12-26 17:47:00,40.5,29.7,30.29,West,277,0.0,0.0,65,0.00,CLR,,0.00,WeatherDisplay:10.37,2013-12-26 22:47:00,
2013-12-26 17:52:00,39.9,29.5,30.29,West,277,0.0,0.0,66,0.00,CLR,,0.00,WeatherDisplay:10.37,2013-12-26 22:52:00,
2013-12-26 17:57:00,39.3,30.7,30.30,West,277,0.0,0.0,71,0.00,CLR,,0.00,WeatherDisplay:10.37,2013-12-26 22:57:00,
2013-12-26 18:02:00,38.7,29.0,30.30,West,277,0.0,0.0,68,0.00,CLR,,0.00,WeatherDisplay:10.37,2013-12-26 23:02:00,
2013-12-26 18:07:00,38.4,28.8,30.30,West,277,0.0,0.0,68,0.00,CLR,,0.00,WeatherDisplay:10.37,2013-12-26 23:07:00,
2013-12-26 18:12:00,38.0,28.7,30.30,West,277,0.0,0.0,69,0.00,CLR,,0.00,WeatherDisplay:10.37,2013-12-26 23:12:00,
2013-12-26 18:17:00,37.5,28.6,30.30,West,277,0.0,0.0,70,0.00,CLR,,0.00,WeatherDisplay:10.37,2013-12-26 23:17:00,
2013-12-26 18:22:00,37.1,28.2,30.30,West,277,0.0,0.0,70,0.00,CLR,,0.00,WeatherDisplay:10.37,2013-12-26 23:22:00,
2013-12-26 18:27:00,36.7,27.8,30.30,West,277,0.0,0.0,70,0.00,CLR,,0.00,WeatherDisplay:10.37,2013-12-26 23:27:00,
2013-12-26 18:32:00,36.3,28.1,30.31,West,277,0.0,0.0,72,0.00,CLR,,0.00,WeatherDisplay:10.37,2013-12-26 23:32:00,
2013-12-26 18:36:00,35.9,27.7,30.31,West,277,0.0,0.0,72,0.00,CLR,,0.00,WeatherDisplay:10.37,2013-12-26 23:36:00,
2013-12-26 18:41:00,35.6,27.8,30.31,West,277,0.0,0.0,73,0.00,CLR,,0.00,WeatherDisplay:10.37,2013-12-26 23:41:00,
2013-12-26 18:42:00,35.5,27.4,30.31,West,277,0.0,0.0,72,0.00,CLR,,0.00,WeatherDisplay:10.37,2013-12-26 23:42:00,
2013-12-26 18:47:00,35.3,27.5,30.31,West,277,0.0,0.0,73,0.00,CLR,,0.00,WeatherDisplay:10.37,2013-12-26 23:47:00,
2013-12-26 18:49:00,35.2,27.4,30.31,West,277,0.0,0.0,73,0.00,CLR,,0.00,WeatherDisplay:10.37,2013-12-26 23:49:00,
2013-12-26 18:54:00,34.9,27.1,30.32,West,277,0.0,0.0,73,0.00,CLR,,0.00,WeatherDisplay:10.37,2013-12-26 23:54:00,
2013-12-26 18:59:00,34.5,27.4,30.32,West,277,0.0,0.0,75,0.00,CLR,,0.00,WeatherDisplay:10.37,2013-12-26 23:59:00,
2013-12-26 19:04:00,34.5,27.4,30.32,West,277,0.0,0.0,75,0.00,CLR,,0.00,WeatherDisplay:10.37,2013-12-27 00:04:00,
2013-12-26 19:09:00,34.2,27.1,30.32,West,277,0.0,0.0,75,0.00,CLR,,0.00,WeatherDisplay:10.37,2013-12-27 00:09:00,
2013-12-26 19:14:00,34.0,27.2,30.32,West,277,0.0,0.0,76,0.00,CLR,,0.00,WeatherDisplay:10.37,2013-12-27 00:14:00,
2013-12-26 19:19:00,33.7,26.9,30.32,West,277,0.0,0.0,76,0.00,CLR,,0.00,WeatherDisplay:10.37,2013-12-27 00:19:00,
2013-12-26 19:24:00,33.5,27.1,30.32,West,277,0.0,0.0,77,0.00,CLR,,0.00,WeatherDisplay:10.37,2013-12-27 00:24:00,
2013-12-26 19:29:00,33.3,26.9,30.32,West,277,0.0,0.0,77,0.00,CLR,,0.00,WeatherDisplay:10.37,2013-12-27 00:29:00,
2013-12-26 19:34:00,33.1,27.0,30.32,West,277,0.0,0.0,78,0.00,CLR,,0.00,WeatherDisplay:10.37,2013-12-27 00:34:00,
2013-12-26 19:39:00,32.9,26.8,30.33,West,277,0.0,0.0,78,0.00,CLR,,0.00,WeatherDisplay:10.37,2013-12-27 00:39:00,
2013-12-26 19:44:00,32.7,26.6,30.33,West,277,0.0,0.0,78,0.00,CLR,,0.00,WeatherDisplay:10.37,2013-12-27 00:44:00,
2013-12-26 19:49:00,32.6,26.8,30.33,West,277,0.0,0.0,79,0.00,CLR,,0.00,WeatherDisplay:10.37,2013-12-27 00:49:00,
2013-12-26 19:54:00,32.4,26.6,30.33,West,277,0.0,0.0,79,0.00,CLR,,0.00,WeatherDisplay:10.37,2013-12-27 00:54:00,
2013-12-26 19:59:00,32.2,26.1,30.33,West,277,0.0,0.0,78,0.00,CLR,,0.00,WeatherDisplay:10.37,2013-12-27 00:59:00,
2013-12-26 20:04:00,32.0,26.2,30.33,West,277,0.0,0.0,79,0.00,CLR,,0.00,WeatherDisplay:10.37,2013-12-27 01:04:00,
2013-12-26 20:09:00,31.9,26.1,30.34,West,277,0.0,0.0,79,0.00,CLR,,0.00,WeatherDisplay:10.37,2013-12-27 01:09:00,
2013-12-26 20:14:00,31.7,25.9,30.34,West,277,0.0,0.0,79,0.00,CLR,,0.00,WeatherDisplay:10.37,2013-12-27 01:14:00,
2013-12-26 20:19:00,31.5,25.7,30.34,West,277,0.0,0.0,79,0.00,CLR,,0.00,WeatherDisplay:10.37,2013-12-27 01:19:00,
2013-12-26 20:24:00,31.3,25.8,30.34,West,277,0.0,0.0,80,0.00,CLR,,0.00,WeatherDisplay:10.37,2013-12-27 01:24:00,
2013-12-26 20:29:00,31.2,25.7,30.34,West,277,0.0,0.0,80,0.00,CLR,,0.00,WeatherDisplay:10.37,2013-12-27 01:29:00,
2013-12-26 20:34:00,31.0,25.6,30.34,West,277,0.0,0.0,80,0.00,CLR,,0.00,WeatherDisplay:10.37,2013-12-27 01:34:00,
2013-12-26 20:39:00,30.9,25.8,30.34,West,277,0.0,0.0,81,0.00,CLR,,0.00,WeatherDisplay:10.37,2013-12-27 01:39:00,
2013-12-26 20:44:00,30.7,25.6,30.35,West,277,0.0,0.0,81,0.00,CLR,,0.00,WeatherDisplay:10.37,2013-12-27 01:44:00,
2013-12-26 20:49:00,30.6,25.5,30.35,West,277,0.0,0.0,81,0.00,CLR,,0.00,WeatherDisplay:10.37,2013-12-27 01:49:00,
2013-12-26 20:54:00,30.5,25.4,30.35,West,277,0.0,0.0,81,0.00,CLR,,0.00,WeatherDisplay:10.37,2013-12-27 01:54:00,
2013-12-26 20:59:00,30.4,25.3,30.36,West,277,0.0,0.0,81,0.00,CLR,,0.00,WeatherDisplay:10.37,2013-12-27 01:59:00,
2013-12-26 21:04:00,30.2,25.4,30.35,West,277,0.0,0.0,82,0.00,CLR,,0.00,WeatherDisplay:10.37,2013-12-27 02:04:00,
2013-12-26 21:09:00,30.1,25.3,30.36,West,277,0.0,0.0,82,0.00,CLR,,0.00,WeatherDisplay:10.37,2013-12-27 02:09:00,
2013-12-26 21:14:00,30.0,25.2,30.36,West,277,0.0,0.0,82,0.00,CLR,,0.00,WeatherDisplay:10.37,2013-12-27 02:14:00,
2013-12-26 21:19:00,30.0,25.2,30.35,West,277,0.0,0.0,82,0.00,CLR,,0.00,WeatherDisplay:10.37,2013-12-27 02:19:00,
2013-12-26 21:24:00,29.9,25.7,30.36,West,277,0.0,0.0,84,0.00,CLR,,0.00,WeatherDisplay:10.37,2013-12-27 02:24:00,
2013-12-26 21:29:00,29.9,25.7,30.36,West,277,0.0,0.0,84,0.00,CLR,,0.00,WeatherDisplay:10.37,2013-12-27 02:29:00,
2013-12-26 21:34:00,29.8,25.6,30.36,West,277,0.0,0.0,84,0.00,CLR,,0.00,WeatherDisplay:10.37,2013-12-27 02:34:00,
2013-12-26 21:39:00,29.8,25.8,30.36,West,277,0.0,0.0,85,0.00,CLR,,0.00,WeatherDisplay:10.37,2013-12-27 02:39:00,
2013-12-26 21:44:00,29.8,25.8,30.36,West,277,0.0,0.0,85,0.00,CLR,,0.00,WeatherDisplay:10.37,2013-12-27 02:44:00,
2013-12-26 21:49:00,29.7,25.7,30.36,West,277,0.0,0.0,85,0.00,CLR,,0.00,WeatherDisplay:10.37,2013-12-27 02:49:00,
2013-12-26 21:54:00,29.7,25.7,30.37,West,277,1.2,1.2,85,0.00,CLR,,0.00,WeatherDisplay:10.37,2013-12-27 02:54:00,
2013-12-26 21:59:00,29.8,25.8,30.37,West,277,2.3,2.3,85,0.00,CLR,,0.00,WeatherDisplay:10.37,2013-12-27 02:59:00,
2013-12-26 22:04:00,29.8,26.1,30.36,West,277,0.0,0.0,86,0.00,CLR,,0.00,WeatherDisplay:10.37,2013-12-27 03:04:00,
2013-12-26 22:09:00,29.9,25.9,30.37,West,277,0.0,0.0,85,0.00,CLR,,0.00,WeatherDisplay:10.37,2013-12-27 03:09:00,
2013-12-26 22:14:00,30.0,26.0,30.37,West,277,2.3,2.3,85,0.00,CLR,,0.00,WeatherDisplay:10.37,2013-12-27 03:14:00,
2013-12-26 22:19:00,30.1,26.1,30.37,West,277,0.0,0.0,85,0.00,CLR,,0.00,WeatherDisplay:10.37,2013-12-27 03:19:00,
2013-12-26 22:24:00,30.2,26.2,30.37,West,277,0.0,0.0,85,0.00,CLR,,0.00,WeatherDisplay:10.37,2013-12-27 03:24:00,
2013-12-26 22:29:00,30.3,26.0,30.37,West,277,1.2,1.2,84,0.00,CLR,,0.00,WeatherDisplay:10.37,2013-12-27 03:29:00,
2013-12-26 22:34:00,30.4,26.1,30.37,West,277,0.0,0.0,84,0.00,CLR,,0.00,WeatherDisplay:10.37,2013-12-27 03:34:00,
2013-12-26 22:39:00,30.6,25.8,30.37,West,277,2.3,2.3,82,0.00,CLR,,0.00,WeatherDisplay:10.37,2013-12-27 03:39:00,
2013-12-26 22:44:00,30.7,25.6,30.37,West,277,0.0,0.0,81,0.00,CLR,,0.00,WeatherDisplay:10.37,2013-12-27 03:44:00,
2013-12-26 22:49:00,30.7,25.6,30.37,West,277,1.2,1.2,81,0.00,CLR,,0.00,WeatherDisplay:10.37,2013-12-27 03:49:00,
2013-12-26 22:54:00,30.8,25.4,30.38,West,277,0.0,0.1,80,0.00,CLR,,0.00,WeatherDisplay:10.37,2013-12-27 03:54:00,
2013-12-26 22:59:00,30.8,25.4,30.38,West,277,0.0,0.0,80,0.00,CLR,,0.00,WeatherDisplay:10.37,2013-12-27 03:59:00,
2013-12-26 23:04:00,30.8,25.4,30.37,West,277,3.5,3.5,80,0.00,CLR,,0.00,WeatherDisplay:10.37,2013-12-27 04:04:00,
2013-12-26 23:09:00,30.8,25.1,30.37,West,277,2.3,2.3,79,0.00,CLR,,0.00,WeatherDisplay:10.37,2013-12-27 04:09:00,
2013-12-26 23:14:00,30.8,25.1,30.37,West,277,0.0,0.0,79,0.00,CLR,,0.00,WeatherDisplay:10.37,2013-12-27 04:14:00,
2013-12-26 23:19:00,30.7,25.0,30.37,West,277,2.3,2.3,79,0.00,CLR,,0.00,WeatherDisplay:10.37,2013-12-27 04:19:00,
2013-12-26 23:24:00,30.7,24.7,30.37,West,277,1.2,0.0,78,0.00,CLR,,0.00,WeatherDisplay:10.37,2013-12-27 04:24:00,
2013-12-26 23:29:00,30.7,24.7,30.37,West,277,1.2,0.0,78,0.00,CLR,,0.00,WeatherDisplay:10.37,2013-12-27 04:29:00,
2013-12-26 23:34:00,30.6,24.6,30.37,West,277,2.3,2.3,78,0.00,CLR,,0.00,WeatherDisplay:10.37,2013-12-27 04:34:00,
2013-12-26 23:39:00,30.6,24.6,30.37,West,277,2.3,2.3,78,0.00,CLR,,0.00,WeatherDisplay:10.37,2013-12-27 04:39:00,
2013-12-26 23:44:00,30.5,24.5,30.37,West,277,0.0,0.0,78,0.00,CLR,,0.00,WeatherDisplay:10.37,2013-12-27 04:44:00,
2013-12-26 23:49:00,30.4,24.4,30.37,West,277,0.0,0.0,78,0.00,CLR,,0.00,WeatherDisplay:10.37,2013-12-27 04:49:00,
2013-12-26 23:54:00,30.3,24.0,30.37,West,277,3.5,3.5,77,0.00,CLR,,0.00,WeatherDisplay:10.37,2013-12-27 04:54:00,
2013-12-26 23:59:00,30.2,23.9,30.37,West,278,1.2,1.2,77,0.00,CLR,,0.00,WeatherDisplay:10.37,2013-12-27 04:59:00,